Year,Month,Day,Hour,Minute,Value (Times are PST for temperature in C)
2016,03,25,00,01,7.10
2016,03,25,00,02,7.10
2016,03,25,00,03,7.10
2016,03,25,00,04,7.10
2016,03,25,00,06,7.10
2016,03,25,00,07,7.10
2016,03,25,00,09,7.10
2016,03,25,00,11,7.00
2016,03,25,00,12,7.00
2016,03,25,00,13,7.00
2016,03,25,00,14,7.00
2016,03,25,00,15,7.00
2016,03,25,00,16,7.00
2016,03,25,00,17,7.00
2016,03,25,00,18,7.00
2016,03,25,00,19,6.90
2016,03,25,00,20,6.90
2016,03,25,00,21,6.90
2016,03,25,00,22,6.90
2016,03,25,00,23,6.90
2016,03,25,00,24,6.90
2016,03,25,00,25,6.90
2016,03,25,00,26,6.90
2016,03,25,00,27,6.90
2016,03,25,00,28,6.80
2016,03,25,00,29,6.80
2016,03,25,00,30,6.80
2016,03,25,00,31,6.80
2016,03,25,00,32,6.80
2016,03,25,00,33,6.80
2016,03,25,00,34,6.80
2016,03,25,00,35,6.80
2016,03,25,00,36,6.80
2016,03,25,00,37,6.80
2016,03,25,00,38,6.80
2016,03,25,00,39,6.80
2016,03,25,00,40,6.80
2016,03,25,00,41,6.80
2016,03,25,00,42,6.80
2016,03,25,00,43,6.80
2016,03,25,00,44,6.80
2016,03,25,00,45,6.80
2016,03,25,00,46,6.80
2016,03,25,00,47,6.80
2016,03,25,00,48,6.80
2016,03,25,00,49,6.80
2016,03,25,00,50,6.80
2016,03,25,00,51,6.80
2016,03,25,00,52,6.80
2016,03,25,00,53,6.80
2016,03,25,00,54,6.90
2016,03,25,00,55,6.90
2016,03,25,00,56,6.90
2016,03,25,00,57,6.90
2016,03,25,00,58,6.90
2016,03,25,00,59,6.90
2016,03,25,01,00,6.90
2016,03,25,01,01,6.90
2016,03,25,01,02,6.90
2016,03,25,01,03,6.90
2016,03,25,01,04,6.90
2016,03,25,01,05,6.90
2016,03,25,01,06,6.90
2016,03,25,01,07,6.90
2016,03,25,01,08,6.90
2016,03,25,01,09,6.90
2016,03,25,01,10,6.90
2016,03,25,01,11,6.90
2016,03,25,01,12,6.90
2016,03,25,01,13,6.90
2016,03,25,01,14,6.90
2016,03,25,01,15,6.80
2016,03,25,01,16,6.80
2016,03,25,01,17,6.80
2016,03,25,01,18,6.80
2016,03,25,01,19,6.80
2016,03,25,01,20,6.80
2016,03,25,01,21,6.80
2016,03,25,01,22,6.80
2016,03,25,01,23,6.80
2016,03,25,01,24,6.80
2016,03,25,01,25,6.80
2016,03,25,01,26,6.80
2016,03,25,01,27,6.80
2016,03,25,01,28,6.80
2016,03,25,01,29,6.80
2016,03,25,01,30,6.80
2016,03,25,01,31,6.80
2016,03,25,01,32,6.80
2016,03,25,01,33,6.80
2016,03,25,01,34,6.80
2016,03,25,01,35,6.80
2016,03,25,01,36,6.80
2016,03,25,01,37,6.80
2016,03,25,01,38,6.80
2016,03,25,01,39,6.80
2016,03,25,01,40,6.80
2016,03,25,01,41,6.80
2016,03,25,01,42,6.80
2016,03,25,01,43,6.80
2016,03,25,01,44,6.80
2016,03,25,01,45,6.80
2016,03,25,01,46,6.80
2016,03,25,01,47,6.80
2016,03,25,01,48,6.80
2016,03,25,01,49,6.70
2016,03,25,01,51,6.70
2016,03,25,01,52,6.70
2016,03,25,01,53,6.70
2016,03,25,01,54,6.70
2016,03,25,01,56,6.70
2016,03,25,01,57,6.70
2016,03,25,01,58,6.70
2016,03,25,01,59,6.70
2016,03,25,02,01,6.70
2016,03,25,02,02,6.70
2016,03,25,02,03,6.70
2016,03,25,02,04,6.70
2016,03,25,02,06,6.70
2016,03,25,02,07,6.70
2016,03,25,02,08,6.70
2016,03,25,02,09,6.70
2016,03,25,02,11,6.70
2016,03,25,02,12,6.70
2016,03,25,02,13,6.70
2016,03,25,02,14,6.70
2016,03,25,02,16,6.70
2016,03,25,02,17,6.70
2016,03,25,02,18,6.70
2016,03,25,02,19,6.70
2016,03,25,02,21,6.70
2016,03,25,02,22,6.70
2016,03,25,02,23,6.70
2016,03,25,02,24,6.70
2016,03,25,02,26,6.70
2016,03,25,02,27,6.70
2016,03,25,02,28,6.70
2016,03,25,02,29,6.70
2016,03,25,02,31,6.70
2016,03,25,02,32,6.70
2016,03,25,02,33,6.70
2016,03,25,02,34,6.70
2016,03,25,02,36,6.70
2016,03,25,02,37,6.70
2016,03,25,02,38,6.70
2016,03,25,02,39,6.70
2016,03,25,02,41,6.70
2016,03,25,02,42,6.70
2016,03,25,02,43,6.70
2016,03,25,02,44,6.70
2016,03,25,02,45,6.70
2016,03,25,02,46,6.70
2016,03,25,02,47,6.70
2016,03,25,02,48,6.70
2016,03,25,02,49,6.60
2016,03,25,02,50,6.60
2016,03,25,02,51,6.60
2016,03,25,02,52,6.60
2016,03,25,02,53,6.60
2016,03,25,02,54,6.60
2016,03,25,02,55,6.60
2016,03,25,02,56,6.60
2016,03,25,02,57,6.60
2016,03,25,02,58,6.60
2016,03,25,02,59,6.60
2016,03,25,03,00,6.60
2016,03,25,03,01,6.60
2016,03,25,03,02,6.60
2016,03,25,03,03,6.60
2016,03,25,03,04,6.40
2016,03,25,03,05,6.40
2016,03,25,03,06,6.40
2016,03,25,03,07,6.40
2016,03,25,03,08,6.40
2016,03,25,03,09,6.40
2016,03,25,03,10,6.40
2016,03,25,03,11,6.40
2016,03,25,03,12,6.40
2016,03,25,03,13,6.40
2016,03,25,03,14,6.40
2016,03,25,03,15,6.40
2016,03,25,03,16,6.40
2016,03,25,03,17,6.40
2016,03,25,03,18,6.40
2016,03,25,03,19,6.40
2016,03,25,03,20,6.40
2016,03,25,03,21,6.30
2016,03,25,03,22,6.30
2016,03,25,03,23,6.30
2016,03,25,03,24,6.30
2016,03,25,03,25,6.30
2016,03,25,03,26,6.30
2016,03,25,03,27,6.30
2016,03,25,03,28,6.30
2016,03,25,03,29,6.30
2016,03,25,03,30,6.30
2016,03,25,03,31,6.30
2016,03,25,03,32,6.30
2016,03,25,03,33,6.30
2016,03,25,03,34,6.20
2016,03,25,03,35,6.20
2016,03,25,03,36,6.20
2016,03,25,03,37,6.20
2016,03,25,03,38,6.20
2016,03,25,03,39,6.20
2016,03,25,03,40,6.20
2016,03,25,03,41,6.20
2016,03,25,03,42,6.20
2016,03,25,03,43,6.20
2016,03,25,03,44,6.20
2016,03,25,03,45,6.20
2016,03,25,03,46,6.20
2016,03,25,03,47,6.20
2016,03,25,03,48,6.20
2016,03,25,03,49,6.20
2016,03,25,03,50,6.20
2016,03,25,03,51,6.20
2016,03,25,03,52,6.20
2016,03,25,03,53,6.20
2016,03,25,03,54,6.20
2016,03,25,03,55,6.20
2016,03,25,03,56,6.20
2016,03,25,03,57,6.20
2016,03,25,03,58,6.20
2016,03,25,03,59,6.20
2016,03,25,04,00,6.20
2016,03,25,04,01,6.20
2016,03,25,04,02,6.20
2016,03,25,04,03,6.20
2016,03,25,04,04,6.20
2016,03,25,04,05,6.20
2016,03,25,04,06,6.20
2016,03,25,04,07,6.20
2016,03,25,04,09,6.20
2016,03,25,04,11,6.20
2016,03,25,04,12,6.20
2016,03,25,04,13,6.20
2016,03,25,04,14,6.20
2016,03,25,04,16,6.20
2016,03,25,04,17,6.20
2016,03,25,04,18,6.20
2016,03,25,04,19,6.20
2016,03,25,04,21,6.20
2016,03,25,04,22,6.20
2016,03,25,04,23,6.20
2016,03,25,04,24,6.20
2016,03,25,04,26,6.20
2016,03,25,04,27,6.20
2016,03,25,04,28,6.20
2016,03,25,04,29,6.20
2016,03,25,04,31,6.20
2016,03,25,04,32,6.20
2016,03,25,04,33,6.20
2016,03,25,04,34,6.20
2016,03,25,04,36,6.20
2016,03,25,04,37,6.20
2016,03,25,04,38,6.20
2016,03,25,04,39,6.10
2016,03,25,04,41,6.10
2016,03,25,04,42,6.10
2016,03,25,04,43,6.10
2016,03,25,04,44,6.10
2016,03,25,04,46,6.00
2016,03,25,04,47,6.00
2016,03,25,04,48,6.00
2016,03,25,04,49,6.00
2016,03,25,04,51,5.90
2016,03,25,04,52,5.90
2016,03,25,04,53,5.90
2016,03,25,04,54,5.90
2016,03,25,04,56,5.90
2016,03,25,04,57,5.90
2016,03,25,04,58,5.90
2016,03,25,04,59,5.90
2016,03,25,05,01,5.90
2016,03,25,05,02,5.90
2016,03,25,05,03,5.90
2016,03,25,05,04,5.90
2016,03,25,05,06,5.80
2016,03,25,05,07,5.80
2016,03,25,05,08,5.80
2016,03,25,05,09,5.80
2016,03,25,05,11,5.80
2016,03,25,06,27,5.20
2016,03,25,06,28,5.20
2016,03,25,06,29,5.20
2016,03,25,06,30,5.20
2016,03,25,06,31,5.20
2016,03,25,06,32,5.20
2016,03,25,06,33,5.20
2016,03,25,06,34,5.20
2016,03,25,06,36,5.20
2016,03,25,06,37,5.20
2016,03,25,06,38,5.20
2016,03,25,06,39,5.20
2016,03,25,06,41,5.20
2016,03,25,06,42,5.20
2016,03,25,06,43,5.20
2016,03,25,06,44,5.20
2016,03,25,06,46,5.20
2016,03,25,06,47,5.20
2016,03,25,06,48,5.20
2016,03,25,06,49,5.20
2016,03,25,06,51,5.20
2016,03,25,06,52,5.20
2016,03,25,06,53,5.20
2016,03,25,06,54,5.20
2016,03,25,06,56,5.20
2016,03,25,06,57,5.20
2016,03,25,06,58,5.20
2016,03,25,06,59,5.20
2016,03,25,07,01,5.20
2016,03,25,07,02,5.10
2016,03,25,07,03,5.10
2016,03,25,07,04,5.10
2016,03,25,07,06,5.10
2016,03,25,07,07,5.10
2016,03,25,07,08,5.10
2016,03,25,07,09,5.10
2016,03,25,07,11,5.10
2016,03,25,07,12,5.10
2016,03,25,07,13,5.10
2016,03,25,07,14,5.10
2016,03,25,07,16,5.10
2016,03,25,07,17,5.10
2016,03,25,07,18,5.10
2016,03,25,07,19,5.10
2016,03,25,07,21,5.10
2016,03,25,07,22,5.10
2016,03,25,07,23,5.10
2016,03,25,07,24,5.10
2016,03,25,07,26,5.10
2016,03,25,07,27,5.10
2016,03,25,07,28,5.10
2016,03,25,07,29,5.10
2016,03,25,07,31,5.10
2016,03,25,07,32,5.10
2016,03,25,07,33,5.20
2016,03,25,07,34,5.20
2016,03,25,07,36,5.30
2016,03,25,07,37,5.30
2016,03,25,07,38,5.30
2016,03,25,07,39,5.30
2016,03,25,07,41,5.30
2016,03,25,07,42,5.40
2016,03,25,07,43,5.40
2016,03,25,07,44,5.40
2016,03,25,07,46,5.50
2016,03,25,07,47,5.60
2016,03,25,07,48,5.60
2016,03,25,07,49,5.70
2016,03,25,07,51,5.70
2016,03,25,07,52,5.80
2016,03,25,07,53,5.80
2016,03,25,07,54,5.90
2016,03,25,07,55,6.00
2016,03,25,07,56,6.00
2016,03,25,07,57,6.10
2016,03,25,07,58,6.20
2016,03,25,07,59,6.20
2016,03,25,08,00,6.20
2016,03,25,08,01,6.30
2016,03,25,08,02,6.40
2016,03,25,08,03,6.40
2016,03,25,08,04,6.60
2016,03,25,08,05,6.70
2016,03,25,08,06,6.80
2016,03,25,08,07,6.90
2016,03,25,08,08,7.00
2016,03,25,08,09,7.20
2016,03,25,08,10,7.30
2016,03,25,08,11,7.50
2016,03,25,08,12,7.60
2016,03,25,08,13,7.70
2016,03,25,08,14,7.80
2016,03,25,08,15,7.80
2016,03,25,08,16,7.80
2016,03,25,08,17,7.80
2016,03,25,08,18,7.80
2016,03,25,08,19,7.80
2016,03,25,08,20,7.80
2016,03,25,08,21,7.80
2016,03,25,08,22,7.80
2016,03,25,08,23,7.80
2016,03,25,08,24,7.80
2016,03,25,08,25,7.80
2016,03,25,08,26,7.70
2016,03,25,08,27,7.70
2016,03,25,08,28,7.70
2016,03,25,08,29,7.70
2016,03,25,08,30,7.70
2016,03,25,08,31,7.60
2016,03,25,08,32,7.60
2016,03,25,08,33,7.70
2016,03,25,08,34,7.70
2016,03,25,08,35,7.80
2016,03,25,08,36,7.80
2016,03,25,08,37,7.80
2016,03,25,08,38,7.80
2016,03,25,08,39,7.80
2016,03,25,08,40,7.80
2016,03,25,08,41,7.80
2016,03,25,08,42,7.90
2016,03,25,08,43,7.90
2016,03,25,08,44,7.90
2016,03,25,08,45,8.00
2016,03,25,08,46,8.00
2016,03,25,08,47,8.00
2016,03,25,08,48,8.10
2016,03,25,08,49,8.10
2016,03,25,08,50,8.20
2016,03,25,08,52,8.30
2016,03,25,08,53,8.40
2016,03,25,08,54,8.50
2016,03,25,08,56,8.60
2016,03,25,08,57,8.60
2016,03,25,08,58,8.60
2016,03,25,08,59,8.60
2016,03,25,09,01,8.60
2016,03,25,09,02,8.60
2016,03,25,09,03,8.70
2016,03,25,09,04,8.70
2016,03,25,09,06,8.70
2016,03,25,09,07,8.80
2016,03,25,09,08,8.90
2016,03,25,09,09,8.90
2016,03,25,09,11,9.00
2016,03,25,09,12,9.00
2016,03,25,09,13,9.10
2016,03,25,09,14,9.10
2016,03,25,09,16,9.10
2016,03,25,09,17,9.10
2016,03,25,09,18,9.10
2016,03,25,09,19,9.10
2016,03,25,09,21,9.00
2016,03,25,09,22,9.00
2016,03,25,09,23,9.00
2016,03,25,09,24,8.90
2016,03,25,09,26,8.90
2016,03,25,09,27,8.90
2016,03,25,09,28,8.90
2016,03,25,09,29,8.90
2016,03,25,09,31,8.90
2016,03,25,09,32,8.90
2016,03,25,09,33,8.90
2016,03,25,09,34,8.90
2016,03,25,09,36,9.00
2016,03,25,09,37,9.00
2016,03,25,09,38,9.00
2016,03,25,09,39,9.00
2016,03,25,09,41,8.90
2016,03,25,09,42,8.90
2016,03,25,09,43,8.90
2016,03,25,09,44,8.90
2016,03,25,09,46,8.90
2016,03,25,09,47,9.00
2016,03,25,09,48,9.00
2016,03,25,09,49,9.00
2016,03,25,09,51,9.00
2016,03,25,09,52,9.10
2016,03,25,09,53,9.10
2016,03,25,09,54,9.10
2016,03,25,09,56,9.10
2016,03,25,09,57,9.10
2016,03,25,09,58,9.20
2016,03,25,09,59,9.20
2016,03,25,10,01,9.20
2016,03,25,10,02,9.30
2016,03,25,10,03,9.40
2016,03,25,10,04,9.50
2016,03,25,10,06,9.60
2016,03,25,10,07,9.70
2016,03,25,10,08,9.70
2016,03,25,10,09,9.70
2016,03,25,10,11,9.70
2016,03,25,10,12,9.80
2016,03,25,10,13,9.80
2016,03,25,10,14,9.80
2016,03,25,10,15,9.80
2016,03,25,10,16,9.80
2016,03,25,10,17,9.80
2016,03,25,10,18,9.80
2016,03,25,10,19,9.70
2016,03,25,10,21,9.70
2016,03,25,10,22,9.70
2016,03,25,10,23,9.70
2016,03,25,10,24,9.70
2016,03,25,10,25,9.70
2016,03,25,10,26,9.70
2016,03,25,10,27,9.70
2016,03,25,10,28,9.70
2016,03,25,10,29,9.80
2016,03,25,10,30,9.80
2016,03,25,10,31,9.90
2016,03,25,10,32,9.90
2016,03,25,10,33,10.10
2016,03,25,10,34,10.10
2016,03,25,10,35,10.20
2016,03,25,10,36,10.30
2016,03,25,10,37,10.30
2016,03,25,10,38,10.40
2016,03,25,10,39,10.40
2016,03,25,10,40,10.40
2016,03,25,10,41,10.40
2016,03,25,10,42,10.40
2016,03,25,10,43,10.40
2016,03,25,10,44,10.40
2016,03,25,10,45,10.40
2016,03,25,10,46,10.40
2016,03,25,10,47,10.40
2016,03,25,10,48,10.40
2016,03,25,10,49,10.40
2016,03,25,10,50,10.40
2016,03,25,10,51,10.40
2016,03,25,10,52,10.40
2016,03,25,10,53,10.40
2016,03,25,10,54,10.40
2016,03,25,10,55,10.40
2016,03,25,10,56,10.40
2016,03,25,10,57,10.30
2016,03,25,10,58,10.30
2016,03,25,10,59,10.30
2016,03,25,11,00,10.30
2016,03,25,11,01,10.30
2016,03,25,11,02,10.20
2016,03,25,11,03,10.20
2016,03,25,11,04,10.20
2016,03,25,11,05,10.20
2016,03,25,11,06,10.30
2016,03,25,11,07,10.30
2016,03,25,11,08,10.30
2016,03,25,11,27,10.60
2016,03,25,11,28,10.60
2016,03,25,11,29,10.60
2016,03,25,11,30,10.60
2016,03,25,11,31,10.70
2016,03,25,11,32,10.70
2016,03,25,11,33,10.70
2016,03,25,11,34,10.70
2016,03,25,11,36,10.70
2016,03,25,11,37,10.70
2016,03,25,11,38,10.80
2016,03,25,11,39,10.80
2016,03,25,11,41,10.90
2016,03,25,11,42,10.90
2016,03,25,11,43,10.90
2016,03,25,11,44,10.90
2016,03,25,11,46,10.90
2016,03,25,11,47,10.90
2016,03,25,11,48,10.90
2016,03,25,11,49,10.90
2016,03,25,11,51,10.90
2016,03,25,11,52,10.90
2016,03,25,11,53,10.80
2016,03,25,11,54,10.80
2016,03,25,11,56,10.80
2016,03,25,11,57,10.80
2016,03,25,11,58,10.80
2016,03,25,11,59,10.90
2016,03,25,12,01,10.90
2016,03,25,12,02,10.90
2016,03,25,12,03,10.90
2016,03,25,12,04,10.90
2016,03,25,12,06,10.90
2016,03,25,12,07,10.90
2016,03,25,12,08,10.90
2016,03,25,12,09,11.10
2016,03,25,12,11,11.10
2016,03,25,12,12,11.10
2016,03,25,12,13,11.20
2016,03,25,12,14,11.20
2016,03,25,12,16,11.30
2016,03,25,12,17,11.40
2016,03,25,12,18,11.40
2016,03,25,12,19,11.40
2016,03,25,12,21,11.60
2016,03,25,12,22,11.60
2016,03,25,12,23,11.60
2016,03,25,12,24,11.60
2016,03,25,12,26,11.60
2016,03,25,12,27,11.60
2016,03,25,12,28,11.60
2016,03,25,12,29,11.60
2016,03,25,12,31,11.60
2016,03,25,12,32,11.60
2016,03,25,12,33,11.60
2016,03,25,12,34,11.60
2016,03,25,12,36,11.60
2016,03,25,12,37,11.60
2016,03,25,12,38,11.70
2016,03,25,12,39,11.70
2016,03,25,12,41,11.80
2016,03,25,12,42,11.80
2016,03,25,12,43,11.80
2016,03,25,12,44,11.80
2016,03,25,12,46,11.90
2016,03,25,12,47,11.90
2016,03,25,12,48,12.00
2016,03,25,12,49,12.10
2016,03,25,12,51,12.10
2016,03,25,12,52,12.20
2016,03,25,12,53,12.30
2016,03,25,12,54,12.30
2016,03,25,12,55,12.30
2016,03,25,12,56,12.30
2016,03,25,12,57,12.40
2016,03,25,12,58,12.40
2016,03,25,12,59,12.50
2016,03,25,13,00,12.50
2016,03,25,13,01,12.50
2016,03,25,13,02,12.50
2016,03,25,13,03,12.60
2016,03,25,13,04,12.60
2016,03,25,13,06,12.60
2016,03,25,13,07,12.60
2016,03,25,13,08,12.60
2016,03,25,13,09,12.60
2016,03,25,13,10,12.60
2016,03,25,13,11,12.50
2016,03,25,13,12,12.50
2016,03,25,13,13,12.50
2016,03,25,13,14,12.40
2016,03,25,13,15,12.40
2016,03,25,13,16,12.30
2016,03,25,13,17,12.30
2016,03,25,13,18,12.30
2016,03,25,13,19,12.20
2016,03,25,13,20,12.10
2016,03,25,13,21,12.00
2016,03,25,13,22,11.80
2016,03,25,13,23,11.80
2016,03,25,13,24,11.70
2016,03,25,13,25,11.60
2016,03,25,13,26,11.40
2016,03,25,13,27,11.40
2016,03,25,13,28,11.30
2016,03,25,13,29,11.20
2016,03,25,13,30,11.10
2016,03,25,13,31,11.10
2016,03,25,13,32,11.10
2016,03,25,13,33,11.10
2016,03,25,13,34,11.10
2016,03,25,13,35,10.90
2016,03,25,13,36,10.90
2016,03,25,13,37,10.80
2016,03,25,13,38,10.70
2016,03,25,13,39,10.70
2016,03,25,13,40,10.60
2016,03,25,13,41,10.60
2016,03,25,13,42,10.40
2016,03,25,13,43,10.40
2016,03,25,13,44,10.40
2016,03,25,13,45,10.40
2016,03,25,13,46,10.40
2016,03,25,13,47,10.40
2016,03,25,13,48,10.40
2016,03,25,13,49,10.40
2016,03,25,13,50,10.40
2016,03,25,13,51,10.60
2016,03,25,13,52,10.60
2016,03,25,13,53,10.60
2016,03,25,13,54,10.70
2016,03,25,13,55,10.70
2016,03,25,13,56,10.80
2016,03,25,13,57,10.90
2016,03,25,13,58,10.90
2016,03,25,13,59,11.10
2016,03,25,14,00,11.10
2016,03,25,14,01,11.20
2016,03,25,14,02,11.30
2016,03,25,14,03,11.30
2016,03,25,14,04,11.40
2016,03,25,14,05,11.40
2016,03,25,14,06,11.40
2016,03,25,14,07,11.40
2016,03,25,14,08,11.40
2016,03,25,14,09,11.40
2016,03,25,14,10,11.30
2016,03,25,14,11,11.20
2016,03,25,14,12,11.20
2016,03,25,14,13,11.10
2016,03,25,14,14,11.10
2016,03,25,14,15,11.10
2016,03,25,14,16,11.10
2016,03,25,14,17,11.10
2016,03,25,14,18,11.10
2016,03,25,14,19,11.10
2016,03,25,14,20,11.10
2016,03,25,14,21,11.10
2016,03,25,14,22,11.20
2016,03,25,14,23,11.20
2016,03,25,14,24,11.20
2016,03,25,14,25,11.30
2016,03,25,14,26,11.20
2016,03,25,14,27,11.20
2016,03,25,14,28,11.10
2016,03,25,14,29,11.10
2016,03,25,14,31,10.90
2016,03,25,14,32,10.90
2016,03,25,14,33,10.90
2016,03,25,14,34,10.90
2016,03,25,14,36,10.90
2016,03,25,14,37,10.90
2016,03,25,14,38,10.80
2016,03,25,14,39,10.80
2016,03,25,14,41,10.80
2016,03,25,14,42,10.80
2016,03,25,14,43,10.70
2016,03,25,14,44,10.70
2016,03,25,14,46,10.60
2016,03,25,14,47,10.60
2016,03,25,14,48,10.60
2016,03,25,14,49,10.60
2016,03,25,14,51,10.70
2016,03,25,14,52,10.80
2016,03,25,14,53,10.90
2016,03,25,14,54,10.90
2016,03,25,14,56,11.10
2016,03,25,14,57,11.10
2016,03,25,14,58,11.20
2016,03,25,14,59,11.30
2016,03,25,15,01,11.40
2016,03,25,15,02,11.40
2016,03,25,15,03,11.40
2016,03,25,15,04,11.40
2016,03,25,15,06,11.40
2016,03,25,15,07,11.40
2016,03,25,15,08,11.40
2016,03,25,15,09,11.60
2016,03,25,15,11,11.60
2016,03,25,15,12,11.70
2016,03,25,15,13,11.80
2016,03,25,15,14,11.80
2016,03,25,15,16,12.00
2016,03,25,15,17,12.00
2016,03,25,15,18,12.00
2016,03,25,15,19,12.10
2016,03,25,15,21,12.10
2016,03,25,15,22,12.10
2016,03,25,15,23,12.10
2016,03,25,15,24,12.20
2016,03,25,15,26,12.20
2016,03,25,15,27,12.30
2016,03,25,15,28,12.30
2016,03,25,15,29,12.30
2016,03,25,15,31,12.30
2016,03,25,15,32,12.30
2016,03,25,15,33,12.30
2016,03,25,15,34,12.30
2016,03,25,15,36,12.30
2016,03,25,15,37,12.40
2016,03,25,15,38,12.40
2016,03,25,15,39,12.30
2016,03,25,15,41,12.30
2016,03,25,15,42,12.40
2016,03,25,15,43,12.40
2016,03,25,15,44,12.40
2016,03,25,15,45,12.50
2016,03,25,15,46,12.50
2016,03,25,15,47,12.50
2016,03,25,15,48,12.50
2016,03,25,15,49,12.50
2016,03,25,15,50,12.50
2016,03,25,15,51,12.50
2016,03,25,15,52,12.40
2016,03,25,15,53,12.30
2016,03,25,15,54,12.30
2016,03,25,15,55,12.30
2016,03,25,15,56,12.20
2016,03,25,15,57,12.10
2016,03,25,15,58,12.00
2016,03,25,15,59,12.00
2016,03,25,16,00,12.00
2016,03,25,16,01,11.90
2016,03,25,16,02,11.90
2016,03,25,16,03,11.80
2016,03,25,16,04,11.80
2016,03,25,16,05,11.80
2016,03,25,16,06,11.80
2016,03,25,16,07,11.70
2016,03,25,16,08,11.70
2016,03,25,16,09,11.80
2016,03,25,16,10,11.80
2016,03,25,16,11,11.80
2016,03,25,16,12,11.80
2016,03,25,16,13,11.80
2016,03,25,16,14,11.80
2016,03,25,16,15,11.80
2016,03,25,16,16,11.80
2016,03,25,16,17,11.80
2016,03,25,16,18,11.80
2016,03,25,16,19,11.70
2016,03,25,16,20,11.70
2016,03,25,16,21,11.70
2016,03,25,16,25,11.60
2016,03,25,16,26,11.70
2016,03,25,16,27,11.60
2016,03,25,16,28,11.40
2016,03,25,16,29,11.40
2016,03,25,16,30,11.40
2016,03,25,16,31,11.30
2016,03,25,16,32,11.30
2016,03,25,16,33,11.20
2016,03,25,16,34,11.20
2016,03,25,16,35,11.10
2016,03,25,16,36,10.90
2016,03,25,16,37,10.90
2016,03,25,16,38,10.90
2016,03,25,16,39,10.80
2016,03,25,16,40,10.70
2016,03,25,16,41,10.70
2016,03,25,16,42,10.70
2016,03,25,16,43,10.70
2016,03,25,16,44,10.70
2016,03,25,16,45,10.70
2016,03,25,16,46,10.70
2016,03,25,16,47,10.80
2016,03,25,16,48,10.80
2016,03,25,16,49,10.80
2016,03,25,16,50,10.90
2016,03,25,16,51,10.90
2016,03,25,16,52,10.90
2016,03,25,16,53,10.90
2016,03,25,16,54,10.90
2016,03,25,16,55,10.90
2016,03,25,16,56,11.10
2016,03,25,16,57,11.10
2016,03,25,16,58,11.10
2016,03,25,16,59,11.10
2016,03,25,17,00,11.10
2016,03,25,17,01,11.10
2016,03,25,17,02,11.20
2016,03,25,17,03,11.20
2016,03,25,17,04,11.20
2016,03,25,17,05,11.30
2016,03,25,17,06,11.30
2016,03,25,17,07,11.40
2016,03,25,17,08,11.40
2016,03,25,17,09,11.40
2016,03,25,17,10,11.40
2016,03,25,17,11,11.40
2016,03,25,17,12,11.40
2016,03,25,17,13,11.40
2016,03,25,17,14,11.60
2016,03,25,17,15,11.60
2016,03,25,17,16,11.60
2016,03,25,17,17,11.60
2016,03,25,17,18,11.70
2016,03,25,17,19,11.70
2016,03,25,17,20,11.60
2016,03,25,17,21,11.60
2016,03,25,17,22,11.60
2016,03,25,17,23,11.60
2016,03,25,17,24,11.60
2016,03,25,17,25,11.40
2016,03,25,17,26,11.40
2016,03,25,17,27,11.40
2016,03,25,17,29,11.40
2016,03,25,17,31,11.40
2016,03,25,17,32,11.40
2016,03,25,17,33,11.40
2016,03,25,17,34,11.40
2016,03,25,17,36,11.40
2016,03,25,17,37,11.30
2016,03,25,17,38,11.30
2016,03,25,17,39,11.40
2016,03,25,17,41,11.40
2016,03,25,17,42,11.40
2016,03,25,17,43,11.40
2016,03,25,17,44,11.40
2016,03,25,17,46,11.40
2016,03,25,17,47,11.40
2016,03,25,17,48,11.40
2016,03,25,17,49,11.40
2016,03,25,17,51,11.40
2016,03,25,17,52,11.40
2016,03,25,17,53,11.40
2016,03,25,17,54,11.40
2016,03,25,17,56,11.40
2016,03,25,17,57,11.40
2016,03,25,17,58,11.40
2016,03,25,17,59,11.60
2016,03,25,18,01,11.60
2016,03,25,18,02,11.60
2016,03,25,18,03,11.60
2016,03,25,18,04,11.60
2016,03,25,18,06,11.60
2016,03,25,18,07,11.60
2016,03,25,18,08,11.60
2016,03,25,18,09,11.60
2016,03,25,18,11,11.60
2016,03,25,18,12,11.60
2016,03,25,18,13,11.60
2016,03,25,18,14,11.40
2016,03,25,18,16,11.40
2016,03,25,18,17,11.40
2016,03,25,18,18,11.30
2016,03,25,18,19,11.20
2016,03,25,18,21,11.10
2016,03,25,18,22,11.10
2016,03,25,18,23,10.90
2016,03,25,18,24,10.90
2016,03,25,18,26,10.80
2016,03,25,18,27,10.70
2016,03,25,18,28,10.70
2016,03,25,18,29,10.70
2016,03,25,18,31,10.70
2016,03,25,18,32,10.70
2016,03,25,18,33,10.70
2016,03,25,18,34,10.60
2016,03,25,18,36,10.60
2016,03,25,18,37,10.60
2016,03,25,18,38,10.60
2016,03,25,18,39,10.60
2016,03,25,18,41,10.60
2016,03,25,18,42,10.40
2016,03,25,18,43,10.40
2016,03,25,18,44,10.40
2016,03,25,18,45,10.40
2016,03,25,18,46,10.40
2016,03,25,18,47,10.40
2016,03,25,18,48,10.40
2016,03,25,18,49,10.40
2016,03,25,18,51,10.40
2016,03,25,18,52,10.40
2016,03,25,18,53,10.40
2016,03,25,18,54,10.40
2016,03,25,18,55,10.40
2016,03,25,18,56,10.40
2016,03,25,18,57,10.40
2016,03,25,18,58,10.40
2016,03,25,18,59,10.30
2016,03,25,19,00,10.30
2016,03,25,19,01,10.30
2016,03,25,19,02,10.30
2016,03,25,19,03,10.30
2016,03,25,19,04,10.20
2016,03,25,19,05,10.20
2016,03,25,19,06,10.20
2016,03,25,19,07,10.20
2016,03,25,19,08,10.10
2016,03,25,19,09,10.10
2016,03,25,19,10,10.10
2016,03,25,19,11,10.10
2016,03,25,19,12,10.10
2016,03,25,19,13,10.10
2016,03,25,19,14,10.10
2016,03,25,19,15,9.90
2016,03,25,19,16,9.90
2016,03,25,19,17,9.90
2016,03,25,19,18,9.90
2016,03,25,19,19,9.90
2016,03,25,19,20,9.80
2016,03,25,19,21,9.80
2016,03,25,19,22,9.70
2016,03,25,19,23,9.70
2016,03,25,19,24,9.70
2016,03,25,19,25,9.60
2016,03,25,19,26,9.50
2016,03,25,19,27,9.50
2016,03,25,19,28,9.40
2016,03,25,19,29,9.40
2016,03,25,19,30,9.30
2016,03,25,19,31,9.30
2016,03,25,19,32,9.20
2016,03,25,19,33,9.20
2016,03,25,19,34,9.20
2016,03,25,19,35,9.10
2016,03,25,19,36,9.10
2016,03,25,19,37,9.00
2016,03,25,19,38,9.00
2016,03,25,19,39,8.90
2016,03,25,19,40,8.90
2016,03,25,19,41,8.80
2016,03,25,19,42,8.80
2016,03,25,19,43,8.70
2016,03,25,19,44,8.70
2016,03,25,19,45,8.70
2016,03,25,19,46,8.70
2016,03,25,19,47,8.60
2016,03,25,19,48,8.60
2016,03,25,19,49,8.50
2016,03,25,19,50,8.50
2016,03,25,19,51,8.40
2016,03,25,19,52,8.40
2016,03,25,19,53,8.30
2016,03,25,19,54,8.30
2016,03,25,19,55,8.20
2016,03,25,19,56,8.20
2016,03,25,19,57,8.20
2016,03,25,19,58,8.20
2016,03,25,19,59,8.10
2016,03,25,20,00,8.10
2016,03,25,20,01,8.10
2016,03,25,20,02,8.00
2016,03,25,20,03,8.00
2016,03,25,20,04,7.90
2016,03,25,20,05,7.90
2016,03,25,20,06,7.90
2016,03,25,20,07,7.80
2016,03,25,20,08,7.80
2016,03,25,20,09,7.80
2016,03,25,20,10,7.80
2016,03,25,20,11,7.80
2016,03,25,20,12,7.80
2016,03,25,20,13,7.80
2016,03,25,20,14,7.70
2016,03,25,20,15,7.70
2016,03,25,20,17,7.70
2016,03,25,20,19,7.70
2016,03,25,20,21,7.70
2016,03,25,20,22,7.70
2016,03,25,20,23,7.70
2016,03,25,20,24,7.70
2016,03,25,20,26,7.70
2016,03,25,20,27,7.70
2016,03,25,20,28,7.70
2016,03,25,20,29,7.70
2016,03,25,20,31,7.70
2016,03,25,20,32,7.70
2016,03,25,20,33,7.80
2016,03,25,20,34,7.80
2016,03,25,20,36,7.80
2016,03,25,20,37,7.80
2016,03,25,20,38,7.80
2016,03,25,20,39,7.80
2016,03,25,20,41,7.80
2016,03,25,20,42,7.80
2016,03,25,20,43,7.80
2016,03,25,20,44,7.80
2016,03,25,20,46,7.80
2016,03,25,20,47,7.80
2016,03,25,20,48,7.80
2016,03,25,20,49,7.80
2016,03,25,20,51,7.80
2016,03,25,20,52,7.70
2016,03,25,20,53,7.70
2016,03,25,20,54,7.70
2016,03,25,20,56,7.60
2016,03,25,20,57,7.60
2016,03,25,20,58,7.60
2016,03,25,20,59,7.60
2016,03,25,21,01,7.50
2016,03,25,21,02,7.50
2016,03,25,21,03,7.50
2016,03,25,21,04,7.40
2016,03,25,21,06,7.40
2016,03,25,21,07,7.40
2016,03,25,21,08,7.40
2016,03,25,21,09,7.40
2016,03,25,21,11,7.30
2016,03,25,21,12,7.30
2016,03,25,21,13,7.30
2016,03,25,21,14,7.30
2016,03,25,21,16,7.30
2016,03,25,21,17,7.30
2016,03,25,21,18,7.30
2016,03,25,21,19,7.30
2016,03,25,21,21,7.30
2016,03,25,21,22,7.30
2016,03,25,21,23,7.30
2016,03,25,21,24,7.30
2016,03,25,21,26,7.30
2016,03,25,21,27,7.30
2016,03,25,21,28,7.30
2016,03,25,21,29,7.30
2016,03,25,21,31,7.30